Terminal Aerodrome Forecast
Issued by NWS Denver/Boulder, CO

Home | Current Version | Previous Version | Text Only | Print | Product List | Glossary On
Versions: 1 2 3 4 5 6 7 8 9 10 11 12 13 14 15 16 17 18 19 20 21 22 23 24 25 26 27 28 29 30 31 32 33 34
000
FTUS45 KBOU 300028 AAA
TAFDEN
TAF AMD
KDEN 300028Z 3000/3106 27010KT P6SM FEW140 SCT220
     FM300500 22008KT P6SM SCT220
     FM301400 35006KT P6SM FEW060 SCT100
     FM301700 06008KT P6SM FEW080 SCT140
     FM302100 09010KT P6SM FEW120 SCT200
     FM310200 17008KT P6SM FEW150=

USA.gov is the U.S. government's official web portal to all federal, state and local government web resources and services.